Newport News, VA

1:22 AM EST on November 23, 2017 (GMT -0500)
Newport News-Williamsburg International

Weather History for KPHF - November, 2012

Change the Weather History Date:

Saturday, November 3, 2012

  Actual Average Record
Temperature  
Mean Temperature 46 °F -  
Max Temperature 55 °F 71 °F 82 °F (1950)
Min Temperature 37 °F 50 °F 32 °F (1996)
Degree Days  
Heating Degree Days 20    
Moisture  
Dew Point 31 °F    
Average Humidity 61    
Maximum Humidity 79    
Minimum Humidity 41    
Precipitation  
Precipitation 0.00 in - - ()
Sea Level Pressure  
Sea Level Pressure 30.03 in    
Wind  
Wind Speed 4 mph (NNW)    
Max Wind Speed 13 mph    
Max Gust Speed 23 mph    
Visibility 10 miles    
Events      
Averages and records for this station are not official NWS values.
T = Trace of Precipitation, MM = Missing Value Source: NWS Daily Summary

Daily Weather History Graph

Daily Weather History Graph

Search for Another Location

Airport or City:

Trip Planner

Search our weather history database for the weather conditions in past years. The results will help you decide how hot, cold, wet, or windy it might be!

Date:

Astronomy

Nov. 03, 2012 Rise Set
Actual Time 7:32 AM EDT 6:05 PM EDT
Civil Twilight 7:05 AM EDT 6:32 PM EDT
Nautical Twilight 6:34 AM EDT 7:03 PM EDT
Astronomical Twilight 6:04 AM EDT 7:34 PM EDT
Moon 9:47 PM EDT (11/3) 11:33 AM EDT (11/3)
Length of Visible Light 11h 27m
Length of Day
10h 32m
Waning Gibbous, 80% of the Moon is Illuminated
Nov 3
Waning Gibbous
Nov 6
Last Quarter
Nov 13
New
Nov 20
First Quarter
Nov 28
Full

Hourly Weather History & Observations

Time (EDT) Temp. Windchill Dew Point Humidity Pressure Visibility Wind Dir Wind Speed Gust Speed Precip Events Conditions
12:54 AM 41.0 °F - 33.1 °F 73% 29.95 in 10.0 mi Calm Calm - N/A   Clear
1:54 AM 39.9 °F 37.8 °F 32.0 °F 73% 29.96 in 10.0 mi NW 3.5 mph - N/A   Clear
2:54 AM 39.0 °F - 30.9 °F 73% 29.96 in 10.0 mi Calm Calm - N/A   Clear
3:54 AM 37.0 °F - 30.9 °F 79% 29.96 in 10.0 mi Calm Calm - N/A   Clear
4:54 AM 37.9 °F 33.5 °F 30.0 °F 73% 29.96 in 10.0 mi NW 5.8 mph - N/A   Clear
5:54 AM 37.9 °F 33.5 °F 30.0 °F 73% 29.98 in 10.0 mi WNW 5.8 mph - N/A   Clear
6:54 AM 37.9 °F 33.5 °F 30.0 °F 73% 30.01 in 10.0 mi NW 5.8 mph - N/A   Clear
7:54 AM 39.0 °F 34.0 °F 30.9 °F 73% 30.03 in 10.0 mi NW 6.9 mph - N/A   Clear
8:54 AM 44.1 °F 40.8 °F 32.0 °F 63% 30.06 in 10.0 mi NNW 5.8 mph - N/A   Partly Cloudy
9:54 AM 46.0 °F 41.9 °F 32.0 °F 58% 30.05 in 10.0 mi NNW 8.1 mph - N/A   Overcast
10:54 AM 48.9 °F - 30.0 °F 48% 30.05 in 10.0 mi NNW 11.5 mph 23.0 mph N/A   Mostly Cloudy
11:54 AM 51.1 °F - 28.9 °F 43% 30.05 in 10.0 mi NW 10.4 mph 19.6 mph N/A   Mostly Cloudy
12:54 PM 51.1 °F - 28.9 °F 43% 30.04 in 10.0 mi North - - N/A   Overcast
1:54 PM 51.1 °F - 30.0 °F 44% 30.03 in 10.0 mi NW 12.7 mph - N/A   Overcast
2:54 PM 52.0 °F - 30.0 °F 43% 30.02 in 10.0 mi NNW 10.4 mph - N/A   Overcast
3:54 PM 54.0 °F - 30.9 °F 41% 30.02 in 10.0 mi NW 8.1 mph - N/A   Partly Cloudy
4:54 PM 54.0 °F - 30.9 °F 41% 30.02 in 10.0 mi WNW 6.9 mph - N/A   Partly Cloudy
5:54 PM 50.0 °F - 30.9 °F 48% 30.03 in 10.0 mi WNW 3.5 mph - N/A   Clear
6:31 PM 46.4 °F - 32.0 °F 57% 30.04 in 10.0 mi Calm Calm - N/A   Partly Cloudy
6:54 PM 44.1 °F - 35.1 °F 71% 30.05 in 10.0 mi Calm Calm - N/A   Clear
7:54 PM 41.0 °F 39.0 °F 34.0 °F 76% 30.06 in 10.0 mi North 3.5 mph - N/A   Clear
8:54 PM 42.1 °F 39.2 °F 33.1 °F 70% 30.08 in 10.0 mi North 4.6 mph - N/A   Clear
9:54 PM 42.1 °F 39.2 °F 32.0 °F 67% 30.09 in 10.0 mi North 4.6 mph - N/A   Clear
10:54 PM 44.1 °F 40.8 °F 33.1 °F 65% 30.09 in 10.0 mi North 5.8 mph - N/A   Overcast
11:54 PM 46.0 °F 43.9 °F 33.1 °F 61% 30.10 in 10.0 mi North 4.6 mph - N/A   Overcast